contact:dominique.lefevre@mio.osupytheas.fr, maurice.libes@osupytheas.fr, didier.mallarino@osupytheas.fr
Project:EMSO http://www.emso-fr.org/EMSO-France
Depth: 2436.0 m
Title:EMSO Ligure Ouest : Data MII capteur MICROCAT
DateTime_Computer,Latitude,Longitude,Temperature,Conductivity,Pressure,DateTime_Instrument
DateTime_Computer,Latitude,Longitude,degC,S m-1,dbar,DateTime_Instrument
2019-05-20T00:03:01Z,42.805,6.029,13.3011,4.59991,2469.503,2019-5-20T02:03:16Z
2019-05-20T00:06:04Z,42.805,6.029,13.2989,4.60003,2469.48,2019-5-20T02:06:19Z
2019-05-20T00:09:07Z,42.805,6.029,13.2991,4.59982,2469.563,2019-5-20T02:09:21Z
2019-05-20T00:12:10Z,42.805,6.029,13.3015,4.60018,2469.517,2019-5-20T02:12:24Z
2019-05-20T00:15:13Z,42.805,6.029,13.2996,4.59996,2469.54,2019-5-20T02:15:27Z
2019-05-20T00:18:16Z,42.805,6.029,13.2991,4.59998,2469.54,2019-5-20T02:18:30Z
2019-05-20T00:21:19Z,42.805,6.029,13.2999,4.60054,2469.494,2019-5-20T02:21:33Z
2019-05-20T00:24:22Z,42.805,6.029,13.2960,4.59999,2469.526,2019-5-20T02:24:36Z
2019-05-20T00:27:25Z,42.805,6.029,13.3000,4.60003,2469.503,2019-5-20T02:27:39Z
2019-05-20T00:30:28Z,42.805,6.029,13.2979,4.59986,2469.54,2019-5-20T02:30:42Z
2019-05-20T00:33:31Z,42.805,6.029,13.2996,4.60002,2469.503,2019-5-20T02:33:45Z
2019-05-20T00:36:34Z,42.805,6.029,13.2990,4.59996,2469.503,2019-5-20T02:36:48Z
2019-05-20T00:39:37Z,42.805,6.029,13.3031,4.60013,2469.503,2019-5-20T02:39:51Z
2019-05-20T00:42:40Z,42.805,6.029,13.3004,4.59984,2469.526,2019-5-20T02:42:54Z
2019-05-20T00:45:43Z,42.805,6.029,13.2991,4.59983,2469.517,2019-5-20T02:45:57Z
2019-05-20T00:48:46Z,42.805,6.029,13.2988,4.59989,2469.517,2019-5-20T02:49:00Z
2019-05-20T00:51:49Z,42.805,6.029,13.2973,4.59983,2469.494,2019-5-20T02:52:03Z
2019-05-20T00:54:52Z,42.805,6.029,13.2996,4.59991,2469.48,2019-5-20T02:55:06Z
2019-05-20T00:57:54Z,42.805,6.029,13.2991,4.59997,2469.517,2019-5-20T02:58:09Z
2019-05-20T01:00:57Z,42.805,6.029,13.3031,4.60003,2469.503,2019-5-20T03:01:12Z
2019-05-20T01:04:00Z,42.805,6.029,13.2981,4.59993,2469.54,2019-5-20T03:04:14Z
2019-05-20T01:07:03Z,42.805,6.029,13.3009,4.59993,2469.48,2019-5-20T03:07:17Z
2019-05-20T01:10:06Z,42.805,6.029,13.3002,4.59982,2469.54,2019-5-20T03:10:20Z
2019-05-20T01:13:09Z,42.805,6.029,13.3001,4.59991,2469.54,2019-5-20T03:13:23Z
2019-05-20T01:16:12Z,42.805,6.029,13.2970,4.60006,2469.494,2019-5-20T03:16:26Z
2019-05-20T01:19:15Z,42.805,6.029,13.3004,4.59986,2469.48,2019-5-20T03:19:29Z
2019-05-20T01:22:18Z,42.805,6.029,13.3001,4.59978,2469.54,2019-5-20T03:22:32Z
2019-05-20T01:25:21Z,42.805,6.029,13.2983,4.59983,2469.517,2019-5-20T03:25:35Z
2019-05-20T01:28:24Z,42.805,6.029,13.3007,4.59996,2469.48,2019-5-20T03:28:38Z
2019-05-20T01:31:27Z,42.805,6.029,13.2987,4.59994,2469.517,2019-5-20T03:31:41Z
2019-05-20T01:34:30Z,42.805,6.029,13.2994,4.59979,2469.456,2019-5-20T03:34:44Z
2019-05-20T01:37:33Z,42.805,6.029,13.3000,4.59987,2469.447,2019-5-20T03:37:47Z
2019-05-20T01:40:36Z,42.805,6.029,13.3003,4.59979,2469.456,2019-5-20T03:40:50Z
2019-05-20T01:43:39Z,42.805,6.029,13.2990,4.59994,2469.456,2019-5-20T03:43:53Z
2019-05-20T01:46:42Z,42.805,6.029,13.2984,4.59994,2469.47,2019-5-20T03:46:56Z
2019-05-20T01:49:45Z,42.805,6.029,13.2995,4.59980,2469.517,2019-5-20T03:49:59Z
2019-05-20T01:52:48Z,42.805,6.029,13.2995,4.59986,2469.433,2019-5-20T03:53:02Z
2019-05-20T01:55:50Z,42.805,6.029,13.3008,4.59994,2469.494,2019-5-20T03:56:05Z
2019-05-20T01:58:53Z,42.805,6.029,13.2994,4.60012,2469.456,2019-5-20T03:59:08Z
2019-05-20T02:01:56Z,42.805,6.029,13.2990,4.59991,2469.47,2019-5-20T04:02:11Z
2019-05-20T02:04:59Z,42.805,6.029,13.2983,4.60002,2469.47,2019-5-20T04:05:13Z
2019-05-20T02:08:02Z,42.805,6.029,13.3019,4.59990,2469.47,2019-5-20T04:08:16Z
2019-05-20T02:11:05Z,42.805,6.029,13.2970,4.59986,2469.456,2019-5-20T04:11:19Z
2019-05-20T02:14:08Z,42.805,6.029,13.2991,4.59979,2469.456,2019-5-20T04:14:22Z
2019-05-20T02:17:11Z,42.805,6.029,13.3040,4.60001,2469.433,2019-5-20T04:17:25Z
2019-05-20T02:20:14Z,42.805,6.029,13.2990,4.59986,2469.447,2019-5-20T04:20:28Z
2019-05-20T02:23:17Z,42.805,6.029,13.2990,4.59987,2469.447,2019-5-20T04:23:31Z
2019-05-20T02:26:20Z,42.805,6.029,13.2986,4.60019,2469.47,2019-5-20T04:26:34Z
2019-05-20T02:29:23Z,42.805,6.029,13.3007,4.60013,2469.456,2019-5-20T04:29:37Z
2019-05-20T02:32:26Z,42.805,6.029,13.3002,4.59982,2469.47,2019-5-20T04:32:40Z
2019-05-20T02:35:29Z,42.805,6.029,13.2998,4.59981,2469.433,2019-5-20T04:35:43Z
2019-05-20T02:38:32Z,42.805,6.029,13.3009,4.60003,2469.456,2019-5-20T04:38:46Z
2019-05-20T02:41:35Z,42.805,6.029,13.2991,4.59995,2469.447,2019-5-20T04:41:49Z
2019-05-20T02:44:38Z,42.805,6.029,13.2993,4.60014,2469.456,2019-5-20T04:44:52Z
2019-05-20T02:47:41Z,42.805,6.029,13.2992,4.59978,2469.47,2019-5-20T04:47:55Z
2019-05-20T02:50:44Z,42.805,6.029,13.2988,4.59996,2469.47,2019-5-20T04:50:58Z
2019-05-20T02:53:47Z,42.805,6.029,13.2986,4.59980,2469.47,2019-5-20T04:54:01Z
2019-05-20T02:56:49Z,42.805,6.029,13.2986,4.59988,2469.47,2019-5-20T04:57:04Z
2019-05-20T02:59:52Z,42.805,6.029,13.2983,4.59995,2469.47,2019-5-20T05:00:07Z
2019-05-20T03:02:55Z,42.805,6.029,13.2990,4.59974,2469.494,2019-5-20T05:03:09Z
2019-05-20T03:05:58Z,42.805,6.029,13.2986,4.59981,2469.47,2019-5-20T05:06:12Z
2019-05-20T03:09:01Z,42.805,6.029,13.3010,4.59976,2469.447,2019-5-20T05:09:15Z
2019-05-20T03:12:04Z,42.805,6.029,13.2989,4.59986,2469.47,2019-5-20T05:12:18Z
2019-05-20T03:15:07Z,42.805,6.029,13.2995,4.59976,2469.47,2019-5-20T05:15:21Z
2019-05-20T03:18:10Z,42.805,6.029,13.2993,4.59991,2469.494,2019-5-20T05:18:24Z
2019-05-20T03:21:13Z,42.805,6.029,13.2997,4.59996,2469.494,2019-5-20T05:21:27Z
2019-05-20T03:24:16Z,42.805,6.029,13.2982,4.59990,2469.41,2019-5-20T05:24:30Z
2019-05-20T03:27:19Z,42.805,6.029,13.2987,4.59994,2469.447,2019-5-20T05:27:33Z
2019-05-20T03:30:22Z,42.805,6.029,13.2991,4.59991,2469.47,2019-5-20T05:30:36Z
2019-05-20T03:33:25Z,42.805,6.029,13.2994,4.60011,2469.47,2019-5-20T05:33:39Z
2019-05-20T03:36:28Z,42.805,6.029,13.3001,4.59991,2469.47,2019-5-20T05:36:42Z
2019-05-20T03:39:31Z,42.805,6.029,13.2996,4.59988,2469.47,2019-5-20T05:39:45Z
2019-05-20T03:42:34Z,42.805,6.029,13.2990,4.60011,2469.47,2019-5-20T05:42:48Z
2019-05-20T03:45:37Z,42.805,6.029,13.2988,4.59997,2469.447,2019-5-20T05:45:51Z
2019-05-20T03:48:40Z,42.805,6.029,13.2985,4.59983,2469.47,2019-5-20T05:48:54Z
2019-05-20T03:51:43Z,42.805,6.029,13.2985,4.59986,2469.456,2019-5-20T05:51:57Z
2019-05-20T03:54:45Z,42.805,6.029,13.2996,4.59985,2469.47,2019-5-20T05:55:00Z
2019-05-20T03:57:48Z,42.805,6.029,13.2985,4.59986,2469.494,2019-5-20T05:58:03Z
2019-05-20T04:00:51Z,42.805,6.029,13.2993,4.59994,2469.456,2019-5-20T06:01:06Z
2019-05-20T04:03:54Z,42.805,6.029,13.2991,4.59985,2469.503,2019-5-20T06:04:08Z
2019-05-20T04:06:57Z,42.805,6.029,13.2992,4.59984,2469.48,2019-5-20T06:07:11Z
2019-05-20T04:10:00Z,42.805,6.029,13.3005,4.59993,2469.47,2019-5-20T06:10:14Z
2019-05-20T04:13:03Z,42.805,6.029,13.3015,4.59984,2469.494,2019-5-20T06:13:17Z
2019-05-20T04:16:06Z,42.805,6.029,13.2994,4.59978,2469.494,2019-5-20T06:16:20Z
2019-05-20T04:19:09Z,42.805,6.029,13.2986,4.59980,2469.47,2019-5-20T06:19:23Z
2019-05-20T04:22:12Z,42.805,6.029,13.3025,4.59985,2469.517,2019-5-20T06:22:26Z
2019-05-20T04:25:15Z,42.805,6.029,13.2997,4.59988,2469.494,2019-5-20T06:25:29Z
2019-05-20T04:28:18Z,42.805,6.029,13.2983,4.59974,2469.47,2019-5-20T06:28:32Z
2019-05-20T04:31:21Z,42.805,6.029,13.2994,4.59983,2469.494,2019-5-20T06:31:35Z
2019-05-20T04:34:24Z,42.805,6.029,13.2990,4.59993,2469.47,2019-5-20T06:34:38Z
2019-05-20T04:37:27Z,42.805,6.029,13.2998,4.59988,2469.494,2019-5-20T06:37:41Z
2019-05-20T04:40:30Z,42.805,6.029,13.2997,4.59983,2469.494,2019-5-20T06:40:44Z
2019-05-20T04:43:33Z,42.805,6.029,13.2984,4.59982,2469.47,2019-5-20T06:43:47Z
2019-05-20T04:46:36Z,42.805,6.029,13.2989,4.59988,2469.517,2019-5-20T06:46:50Z
2019-05-20T04:49:39Z,42.805,6.029,13.2992,4.59995,2469.494,2019-5-20T06:49:53Z
2019-05-20T04:52:42Z,42.805,6.029,13.2989,4.59981,2469.494,2019-5-20T06:52:56Z
2019-05-20T04:55:44Z,42.805,6.029,13.2995,4.59980,2469.47,2019-5-20T06:55:59Z
2019-05-20T04:58:47Z,42.805,6.029,13.2988,4.59981,2469.517,2019-5-20T06:59:02Z
2019-05-20T05:01:50Z,42.805,6.029,13.2984,4.59981,2469.517,2019-5-20T07:02:05Z
2019-05-20T05:04:53Z,42.805,6.029,13.3009,4.59994,2469.503,2019-5-20T07:05:07Z
2019-05-20T05:07:56Z,42.805,6.029,13.2990,4.59984,2469.54,2019-5-20T07:08:10Z
2019-05-20T05:10:59Z,42.805,6.029,13.2988,4.59979,2469.517,2019-5-20T07:11:13Z
2019-05-20T05:14:02Z,42.805,6.029,13.2983,4.59986,2469.563,2019-5-20T07:14:16Z
2019-05-20T05:17:05Z,42.805,6.029,13.2977,4.59979,2469.526,2019-5-20T07:17:19Z
2019-05-20T05:20:08Z,42.805,6.029,13.2987,4.59978,2469.563,2019-5-20T07:20:22Z
2019-05-20T05:23:11Z,42.805,6.029,13.2985,4.59983,2469.54,2019-5-20T07:23:25Z
2019-05-20T05:26:14Z,42.805,6.029,13.2986,4.59984,2469.563,2019-5-20T07:26:28Z
2019-05-20T05:29:17Z,42.805,6.029,13.2988,4.59986,2469.573,2019-5-20T07:29:31Z
2019-05-20T05:32:20Z,42.805,6.029,13.2991,4.59995,2469.563,2019-5-20T07:32:34Z
2019-05-20T05:35:23Z,42.805,6.029,13.2986,4.59982,2469.563,2019-5-20T07:35:37Z
2019-05-20T05:38:26Z,42.805,6.029,13.2989,4.59975,2469.563,2019-5-20T07:38:40Z
2019-05-20T05:41:29Z,42.805,6.029,13.2976,4.59976,2469.587,2019-5-20T07:41:43Z
2019-05-20T05:44:32Z,42.805,6.029,13.2983,4.59971,2469.563,2019-5-20T07:44:46Z
2019-05-20T05:47:35Z,42.805,6.029,13.2976,4.59989,2469.55,2019-5-20T07:47:49Z
2019-05-20T05:50:38Z,42.805,6.029,13.2985,4.59973,2469.563,2019-5-20T07:50:52Z
2019-05-20T05:53:40Z,42.805,6.029,13.2991,4.59976,2469.573,2019-5-20T07:53:55Z
2019-05-20T05:56:43Z,42.805,6.029,13.2979,4.59983,2469.61,2019-5-20T07:56:58Z
2019-05-20T05:59:46Z,42.805,6.029,13.2986,4.59977,2469.587,2019-5-20T08:00:01Z
2019-05-20T06:02:49Z,42.805,6.029,13.2979,4.59979,2469.573,2019-5-20T08:03:03Z
2019-05-20T06:05:52Z,42.805,6.029,13.2991,4.59977,2469.587,2019-5-20T08:06:06Z
2019-05-20T06:08:55Z,42.805,6.029,13.2991,4.59988,2469.61,2019-5-20T08:09:09Z
2019-05-20T06:11:58Z,42.805,6.029,13.2989,4.59981,2469.573,2019-5-20T08:12:12Z
2019-05-20T06:15:01Z,42.805,6.029,13.3011,4.59975,2469.573,2019-5-20T08:15:15Z
2019-05-20T06:18:04Z,42.805,6.029,13.2979,4.59981,2469.597,2019-5-20T08:18:18Z
2019-05-20T06:21:07Z,42.805,6.029,13.2984,4.59976,2469.597,2019-5-20T08:21:21Z
2019-05-20T06:24:10Z,42.805,6.029,13.2979,4.59981,2469.587,2019-5-20T08:24:24Z
2019-05-20T06:27:13Z,42.805,6.029,13.2981,4.59974,2469.587,2019-5-20T08:27:27Z
2019-05-20T06:30:16Z,42.805,6.029,13.2996,4.59997,2469.573,2019-5-20T08:30:30Z
2019-05-20T06:33:19Z,42.805,6.029,13.2996,4.59990,2469.573,2019-5-20T08:33:33Z
2019-05-20T06:36:22Z,42.805,6.029,13.2985,4.59998,2469.587,2019-5-20T08:36:36Z
2019-05-20T06:39:25Z,42.805,6.029,13.2980,4.59976,2469.597,2019-5-20T08:39:39Z
2019-05-20T06:42:28Z,42.805,6.029,13.2987,4.59981,2469.634,2019-5-20T08:42:42Z
2019-05-20T06:45:31Z,42.805,6.029,13.2974,4.59976,2469.587,2019-5-20T08:45:45Z
2019-05-20T06:48:34Z,42.805,6.029,13.2976,4.59984,2469.587,2019-5-20T08:48:48Z
2019-05-20T06:51:36Z,42.805,6.029,13.2977,4.59980,2469.634,2019-5-20T08:51:51Z
2019-05-20T06:54:39Z,42.805,6.029,13.3004,4.59988,2469.62,2019-5-20T08:54:54Z
2019-05-20T06:57:42Z,42.805,6.029,13.2974,4.59970,2469.634,2019-5-20T08:57:57Z
2019-05-20T07:00:45Z,42.805,6.029,13.2978,4.59973,2469.587,2019-5-20T09:01:00Z
2019-05-20T07:03:48Z,42.805,6.029,13.2977,4.59984,2469.61,2019-5-20T09:04:02Z
2019-05-20T07:06:51Z,42.805,6.029,13.2971,4.59971,2469.573,2019-5-20T09:07:05Z
2019-05-20T07:09:54Z,42.805,6.029,13.2976,4.59972,2469.62,2019-5-20T09:10:08Z
2019-05-20T07:12:57Z,42.805,6.029,13.2984,4.59981,2469.634,2019-5-20T09:13:11Z
2019-05-20T07:16:00Z,42.805,6.029,13.2990,4.59991,2469.62,2019-5-20T09:16:14Z
2019-05-20T07:19:03Z,42.805,6.029,13.2984,4.59986,2469.62,2019-5-20T09:19:17Z
2019-05-20T07:22:06Z,42.805,6.029,13.2979,4.59996,2469.643,2019-5-20T09:22:20Z
2019-05-20T07:25:09Z,42.805,6.029,13.2986,4.59977,2469.634,2019-5-20T09:25:23Z
2019-05-20T07:28:12Z,42.805,6.029,13.2979,4.59982,2469.657,2019-5-20T09:28:26Z
2019-05-20T07:31:15Z,42.805,6.029,13.2981,4.60019,2469.61,2019-5-20T09:31:29Z
2019-05-20T07:34:18Z,42.805,6.029,13.2993,4.59981,2469.643,2019-5-20T09:34:32Z
2019-05-20T07:37:21Z,42.805,6.029,13.2974,4.59967,2469.634,2019-5-20T09:37:35Z
2019-05-20T07:40:24Z,42.805,6.029,13.2974,4.59983,2469.657,2019-5-20T09:40:38Z
2019-05-20T07:43:27Z,42.805,6.029,13.2974,4.59995,2469.634,2019-5-20T09:43:41Z
2019-05-20T07:46:30Z,42.805,6.029,13.2993,4.59992,2469.597,2019-5-20T09:46:44Z
2019-05-20T07:49:33Z,42.805,6.029,13.2991,4.60009,2469.657,2019-5-20T09:49:47Z
2019-05-20T07:52:35Z,42.805,6.029,13.2992,4.59991,2469.643,2019-5-20T09:52:50Z
2019-05-20T07:55:38Z,42.805,6.029,13.3004,4.60004,2469.634,2019-5-20T09:55:53Z
2019-05-20T07:58:41Z,42.805,6.029,13.2976,4.59977,2469.597,2019-5-20T09:58:56Z
2019-05-20T08:01:44Z,42.805,6.029,13.3001,4.59989,2469.657,2019-5-20T10:01:58Z
2019-05-20T08:04:47Z,42.805,6.029,13.2985,4.59978,2469.657,2019-5-20T10:05:01Z
2019-05-20T08:07:50Z,42.805,6.029,13.2985,4.59980,2469.61,2019-5-20T10:08:04Z
2019-05-20T08:10:53Z,42.805,6.029,13.2969,4.59988,2469.634,2019-5-20T10:11:07Z
2019-05-20T08:13:56Z,42.805,6.029,13.2986,4.59991,2469.597,2019-5-20T10:14:10Z
2019-05-20T08:16:59Z,42.805,6.029,13.3011,4.59991,2469.634,2019-5-20T10:17:13Z
2019-05-20T08:20:02Z,42.805,6.029,13.2978,4.59995,2469.634,2019-5-20T10:20:16Z
2019-05-20T08:23:05Z,42.805,6.029,13.2982,4.59977,2469.634,2019-5-20T10:23:19Z
2019-05-20T08:26:08Z,42.805,6.029,13.2977,4.59996,2469.597,2019-5-20T10:26:22Z
2019-05-20T08:29:11Z,42.805,6.029,13.2965,4.59986,2469.61,2019-5-20T10:29:25Z
2019-05-20T08:32:14Z,42.805,6.029,13.2981,4.60001,2469.587,2019-5-20T10:32:28Z
2019-05-20T08:35:17Z,42.805,6.029,13.2974,4.59982,2469.62,2019-5-20T10:35:31Z
2019-05-20T08:38:20Z,42.805,6.029,13.2987,4.59986,2469.573,2019-5-20T10:38:34Z
2019-05-20T08:41:23Z,42.805,6.029,13.2952,4.59986,2469.597,2019-5-20T10:41:37Z
2019-05-20T08:44:26Z,42.805,6.029,13.2993,4.59993,2469.587,2019-5-20T10:44:40Z
2019-05-20T08:47:29Z,42.805,6.029,13.2998,4.59992,2469.587,2019-5-20T10:47:43Z
2019-05-20T08:50:32Z,42.805,6.029,13.2977,4.59991,2469.573,2019-5-20T10:50:46Z
2019-05-20T08:53:35Z,42.805,6.029,13.2978,4.59987,2469.61,2019-5-20T10:53:49Z
2019-05-20T08:56:37Z,42.805,6.029,13.2972,4.59986,2469.587,2019-5-20T10:56:52Z
2019-05-20T08:59:40Z,42.805,6.029,13.2966,4.59995,2469.61,2019-5-20T10:59:55Z
2019-05-20T09:02:43Z,42.805,6.029,13.2995,4.60006,2469.61,2019-5-20T11:02:58Z
2019-05-20T09:05:46Z,42.805,6.029,13.3000,4.60009,2469.597,2019-5-20T11:06:01Z
2019-05-20T09:08:49Z,42.805,6.029,13.2968,4.59999,2469.61,2019-5-20T11:09:03Z
2019-05-20T09:11:52Z,42.805,6.029,13.2958,4.59993,2469.587,2019-5-20T11:12:06Z
2019-05-20T09:14:55Z,42.805,6.029,13.3016,4.59993,2469.597,2019-5-20T11:15:09Z
2019-05-20T09:17:58Z,42.805,6.029,13.2987,4.59991,2469.597,2019-5-20T11:18:12Z
2019-05-20T09:21:01Z,42.805,6.029,13.2963,4.59991,2469.563,2019-5-20T11:21:15Z
2019-05-20T09:24:04Z,42.805,6.029,13.2971,4.59988,2469.573,2019-5-20T11:24:18Z
2019-05-20T09:27:07Z,42.805,6.029,13.2963,4.59991,2469.587,2019-5-20T11:27:21Z
2019-05-20T09:30:10Z,42.805,6.029,13.2983,4.59991,2469.573,2019-5-20T11:30:24Z
2019-05-20T09:33:13Z,42.805,6.029,13.2983,4.60011,2469.587,2019-5-20T11:33:27Z
2019-05-20T09:36:16Z,42.805,6.029,13.2961,4.59986,2469.587,2019-5-20T11:36:30Z
2019-05-20T09:39:19Z,42.805,6.029,13.2984,4.59980,2469.563,2019-5-20T11:39:33Z
2019-05-20T09:42:22Z,42.805,6.029,13.2954,4.59996,2469.55,2019-5-20T11:42:36Z
2019-05-20T09:45:25Z,42.805,6.029,13.2953,4.59973,2469.55,2019-5-20T11:45:39Z
2019-05-20T09:48:28Z,42.805,6.029,13.2953,4.59963,2469.573,2019-5-20T11:48:42Z
2019-05-20T09:51:31Z,42.805,6.029,13.2952,4.59968,2469.587,2019-5-20T11:51:45Z
2019-05-20T09:54:34Z,42.805,6.029,13.2953,4.59973,2469.573,2019-5-20T11:54:48Z
2019-05-20T09:57:37Z,42.805,6.029,13.2958,4.59999,2469.55,2019-5-20T11:57:51Z
2019-05-20T10:00:39Z,42.805,6.029,13.2978,4.59990,2469.526,2019-5-20T12:00:54Z
2019-05-20T10:03:42Z,42.805,6.029,13.2958,4.59997,2469.587,2019-5-20T12:03:57Z
2019-05-20T10:06:45Z,42.805,6.029,13.2959,4.59988,2469.573,2019-5-20T12:07:00Z
2019-05-20T10:09:48Z,42.805,6.029,13.2958,4.59976,2469.54,2019-5-20T12:10:03Z
2019-05-20T10:12:51Z,42.805,6.029,13.2951,4.59982,2469.563,2019-5-20T12:13:05Z
2019-05-20T10:15:54Z,42.805,6.029,13.2949,4.59979,2469.61,2019-5-20T12:16:08Z
2019-05-20T10:18:57Z,42.805,6.029,13.2955,4.59983,2469.517,2019-5-20T12:19:11Z
2019-05-20T10:22:00Z,42.805,6.029,13.2953,4.59985,2469.563,2019-5-20T12:22:14Z
2019-05-20T10:25:03Z,42.805,6.029,13.2952,4.59978,2469.54,2019-5-20T12:25:17Z
2019-05-20T10:28:06Z,42.805,6.029,13.2952,4.59978,2469.563,2019-5-20T12:28:20Z
2019-05-20T10:31:09Z,42.805,6.029,13.2963,4.59970,2469.587,2019-5-20T12:31:23Z
2019-05-20T10:34:12Z,42.805,6.029,13.2956,4.59996,2469.54,2019-5-20T12:34:26Z
2019-05-20T10:37:15Z,42.805,6.029,13.2956,4.60003,2469.54,2019-5-20T12:37:29Z
2019-05-20T10:40:18Z,42.805,6.029,13.2952,4.59988,2469.526,2019-5-20T12:40:32Z
2019-05-20T10:43:21Z,42.805,6.029,13.3009,4.59971,2469.517,2019-5-20T12:43:35Z
2019-05-20T10:46:24Z,42.805,6.029,13.2967,4.59979,2469.54,2019-5-20T12:46:38Z
2019-05-20T10:49:27Z,42.805,6.029,13.2953,4.59984,2469.526,2019-5-20T12:49:41Z
2019-05-20T10:52:30Z,42.805,6.029,13.2952,4.59988,2469.54,2019-5-20T12:52:44Z
2019-05-20T10:55:33Z,42.805,6.029,13.2953,4.59962,2469.54,2019-5-20T12:55:47Z
2019-05-20T10:58:36Z,42.805,6.029,13.2955,4.59966,2469.503,2019-5-20T12:58:50Z
2019-05-20T11:01:39Z,42.805,6.029,13.2952,4.59964,2469.526,2019-5-20T13:01:53Z
2019-05-20T11:04:42Z,42.805,6.029,13.2952,4.59968,2469.526,2019-5-20T13:04:56Z
2019-05-20T11:07:44Z,42.805,6.029,13.2950,4.59973,2469.517,2019-5-20T13:07:59Z
2019-05-20T11:10:47Z,42.805,6.029,13.2953,4.59976,2469.48,2019-5-20T13:11:02Z
2019-05-20T11:13:50Z,42.805,6.029,13.2955,4.59981,2469.526,2019-5-20T13:14:05Z
2019-05-20T11:16:53Z,42.805,6.029,13.2953,4.59971,2469.517,2019-5-20T13:17:07Z
2019-05-20T11:19:56Z,42.805,6.029,13.2953,4.59969,2469.573,2019-5-20T13:20:10Z
2019-05-20T11:22:59Z,42.805,6.029,13.2955,4.59965,2469.503,2019-5-20T13:23:13Z
2019-05-20T11:26:02Z,42.805,6.029,13.2951,4.59966,2469.517,2019-5-20T13:26:16Z
2019-05-20T11:29:05Z,42.805,6.029,13.2952,4.59966,2469.517,2019-5-20T13:29:19Z
2019-05-20T11:32:08Z,42.805,6.029,13.2949,4.59967,2469.494,2019-5-20T13:32:22Z
2019-05-20T11:35:11Z,42.805,6.029,13.2950,4.59963,2469.517,2019-5-20T13:35:25Z
2019-05-20T11:38:14Z,42.805,6.029,13.2951,4.59964,2469.517,2019-5-20T13:38:28Z
2019-05-20T11:41:17Z,42.805,6.029,13.2953,4.59962,2469.526,2019-5-20T13:41:31Z
2019-05-20T11:44:20Z,42.805,6.029,13.2950,4.59967,2469.526,2019-5-20T13:44:34Z
2019-05-20T11:47:23Z,42.805,6.029,13.2952,4.59970,2469.55,2019-5-20T13:47:37Z
2019-05-20T11:50:26Z,42.805,6.029,13.2947,4.59964,2469.503,2019-5-20T13:50:40Z
2019-05-20T11:53:29Z,42.805,6.029,13.2956,4.59972,2469.517,2019-5-20T13:53:43Z
2019-05-20T11:56:32Z,42.805,6.029,13.2952,4.59973,2469.517,2019-5-20T13:56:46Z
2019-05-20T11:59:35Z,42.805,6.029,13.2953,4.59971,2469.54,2019-5-20T13:59:49Z
2019-05-20T12:02:38Z,42.805,6.029,13.2951,4.59969,2469.517,2019-5-20T14:02:52Z
2019-05-20T12:05:41Z,42.805,6.029,13.2951,4.59971,2469.526,2019-5-20T14:05:55Z
2019-05-20T12:08:44Z,42.805,6.029,13.2954,4.59971,2469.494,2019-5-20T14:08:58Z
2019-05-20T12:11:46Z,42.805,6.029,13.2950,4.59976,2469.503,2019-5-20T14:12:01Z
2019-05-20T12:14:49Z,42.805,6.029,13.2955,4.59976,2469.456,2019-5-20T14:15:04Z
2019-05-20T12:17:52Z,42.805,6.029,13.2949,4.59991,2469.456,2019-5-20T14:18:07Z
2019-05-20T12:20:55Z,42.805,6.029,13.2952,4.59983,2469.456,2019-5-20T14:21:10Z
2019-05-20T12:23:58Z,42.805,6.029,13.2952,4.59982,2469.526,2019-5-20T14:24:12Z
2019-05-20T12:27:01Z,42.805,6.029,13.2955,4.59984,2469.517,2019-5-20T14:27:15Z
2019-05-20T12:30:04Z,42.805,6.029,13.2950,4.59974,2469.47,2019-5-20T14:30:18Z
2019-05-20T12:33:07Z,42.805,6.029,13.2953,4.59988,2469.456,2019-5-20T14:33:21Z
2019-05-20T12:36:10Z,42.805,6.029,13.2954,4.59972,2469.494,2019-5-20T14:36:24Z
2019-05-20T12:39:13Z,42.805,6.029,13.2948,4.59973,2469.456,2019-5-20T14:39:27Z
2019-05-20T12:42:16Z,42.805,6.029,13.2952,4.59971,2469.494,2019-5-20T14:42:30Z
2019-05-20T12:45:19Z,42.805,6.029,13.2951,4.59973,2469.456,2019-5-20T14:45:33Z
2019-05-20T12:48:22Z,42.805,6.029,13.2952,4.59968,2469.494,2019-5-20T14:48:36Z
2019-05-20T12:51:25Z,42.805,6.029,13.2953,4.59976,2469.48,2019-5-20T14:51:39Z
2019-05-20T12:54:28Z,42.805,6.029,13.2952,4.59977,2469.456,2019-5-20T14:54:42Z
2019-05-20T12:57:31Z,42.805,6.029,13.2947,4.59980,2469.47,2019-5-20T14:57:45Z
2019-05-20T13:00:34Z,42.805,6.029,13.2954,4.59974,2469.48,2019-5-20T15:00:48Z
2019-05-20T13:03:37Z,42.805,6.029,13.2953,4.59971,2469.47,2019-5-20T15:03:51Z
2019-05-20T13:06:40Z,42.805,6.029,13.2950,4.59966,2469.447,2019-5-20T15:06:54Z
2019-05-20T13:09:43Z,42.805,6.029,13.2957,4.59964,2469.456,2019-5-20T15:09:57Z
2019-05-20T13:12:46Z,42.805,6.029,13.2952,4.59962,2469.456,2019-5-20T15:13:00Z
2019-05-20T13:15:48Z,42.805,6.029,13.2954,4.59970,2469.47,2019-5-20T15:16:03Z
2019-05-20T13:18:51Z,42.805,6.029,13.2950,4.59971,2469.47,2019-5-20T15:19:06Z
2019-05-20T13:21:54Z,42.805,6.029,13.2952,4.59961,2469.47,2019-5-20T15:22:09Z
2019-05-20T13:24:57Z,42.805,6.029,13.2952,4.59966,2469.47,2019-5-20T15:25:12Z
2019-05-20T13:28:00Z,42.805,6.029,13.2949,4.59961,2469.47,2019-5-20T15:28:14Z
2019-05-20T13:31:03Z,42.805,6.029,13.2956,4.59961,2469.47,2019-5-20T15:31:17Z
2019-05-20T13:34:06Z,42.805,6.029,13.2949,4.59969,2469.433,2019-5-20T15:34:20Z
2019-05-20T13:37:09Z,42.805,6.029,13.2949,4.59971,2469.433,2019-5-20T15:37:23Z
2019-05-20T13:40:12Z,42.805,6.029,13.2953,4.59965,2469.456,2019-5-20T15:40:26Z
2019-05-20T13:43:15Z,42.805,6.029,13.2949,4.59967,2469.433,2019-5-20T15:43:29Z
2019-05-20T13:46:18Z,42.805,6.029,13.2950,4.59963,2469.447,2019-5-20T15:46:32Z
2019-05-20T13:49:21Z,42.805,6.029,13.2948,4.59961,2469.41,2019-5-20T15:49:35Z
2019-05-20T13:52:24Z,42.805,6.029,13.2951,4.59960,2469.433,2019-5-20T15:52:38Z
2019-05-20T13:55:27Z,42.805,6.029,13.2952,4.59962,2469.447,2019-5-20T15:55:41Z
2019-05-20T13:58:30Z,42.805,6.029,13.2948,4.59961,2469.433,2019-5-20T15:58:44Z
2019-05-20T14:01:33Z,42.805,6.029,13.2949,4.59961,2469.494,2019-5-20T16:01:47Z
2019-05-20T14:04:36Z,42.805,6.029,13.2951,4.59976,2469.433,2019-5-20T16:04:50Z
2019-05-20T14:07:39Z,42.805,6.029,13.2950,4.59966,2469.447,2019-5-20T16:07:53Z
2019-05-20T14:10:42Z,42.805,6.029,13.2953,4.59962,2469.47,2019-5-20T16:10:56Z
2019-05-20T14:13:45Z,42.805,6.029,13.2949,4.59967,2469.447,2019-5-20T16:13:59Z
2019-05-20T14:16:48Z,42.805,6.029,13.2950,4.59964,2469.47,2019-5-20T16:17:02Z
2019-05-20T14:19:51Z,42.805,6.029,13.2951,4.59960,2469.494,2019-5-20T16:20:05Z
2019-05-20T14:22:53Z,42.805,6.029,13.2952,4.59968,2469.433,2019-5-20T16:23:08Z
2019-05-20T14:25:56Z,42.805,6.029,13.2953,4.59964,2469.456,2019-5-20T16:26:11Z
2019-05-20T14:28:59Z,42.805,6.029,13.2953,4.59961,2469.447,2019-5-20T16:29:14Z
2019-05-20T14:32:02Z,42.805,6.029,13.2953,4.59969,2469.433,2019-5-20T16:32:16Z
2019-05-20T14:35:05Z,42.805,6.029,13.2953,4.59968,2469.47,2019-5-20T16:35:19Z
2019-05-20T14:38:08Z,42.805,6.029,13.2952,4.59980,2469.456,2019-5-20T16:38:22Z
2019-05-20T14:41:11Z,42.805,6.029,13.2952,4.59988,2469.47,2019-5-20T16:41:25Z
2019-05-20T14:44:14Z,42.805,6.029,13.2951,4.59978,2469.47,2019-5-20T16:44:28Z
2019-05-20T14:47:17Z,42.805,6.029,13.2953,4.59986,2469.424,2019-5-20T16:47:31Z
2019-05-20T14:50:20Z,42.805,6.029,13.2947,4.59987,2469.424,2019-5-20T16:50:34Z
2019-05-20T14:53:23Z,42.805,6.029,13.2953,4.59975,2469.433,2019-5-20T16:53:37Z
2019-05-20T14:56:26Z,42.805,6.029,13.2948,4.59978,2469.41,2019-5-20T16:56:40Z
2019-05-20T14:59:29Z,42.805,6.029,13.2948,4.59980,2469.461,2019-5-20T16:59:43Z
2019-05-20T15:02:32Z,42.805,6.029,13.2966,4.59976,2469.47,2019-5-20T17:02:46Z
2019-05-20T15:05:35Z,42.805,6.029,13.2957,4.59991,2469.447,2019-5-20T17:05:49Z
2019-05-20T15:08:38Z,42.805,6.029,13.2956,4.60021,2469.447,2019-5-20T17:08:52Z
2019-05-20T15:11:41Z,42.805,6.029,13.2961,4.59987,2469.47,2019-5-20T17:11:55Z
2019-05-20T15:14:44Z,42.805,6.029,13.2952,4.60036,2469.433,2019-5-20T17:14:58Z